When you browse on this site, cookies collect data to enhance your experience and personalize the content and advertising you see.
Visit our Privacy Policy to learn more. By continuing to use the site, you agree to this use of cookies and data.
  • In Germany
  • List of Countries
  • For 7 days
  • Water Temperature
  • Satellite Maps
  • Weather Map
  • Weather Widgets
  • user-avatar
    Login

    Hourly Weather Zheltura

    Today, 18 December, Tuesday

    Time Temperature Precipitation Wind Pressure Humidity
    00:00 -12°C° 0 mm 1 mps 698 mmHg 76%
    01:00 -12°C° 0 mm 1 mps 698 mmHg 75%
    02:00 -12°C° 0 mm 1 mps 698 mmHg 75%
    03:00 -12°C° 0 mm 1 mps 698 mmHg 75%
    04:00 -14°C° 0 mm 2 mps 698 mmHg 75%
    05:00 -14°C° 0 mm 2 mps 698 mmHg 75%
    06:00 -14°C° 0 mm 2 mps 698 mmHg 75%
    07:00 -13°C° 0 mm 2 mps 698 mmHg 73%
    08:00 -12°C° 0 mm 2 mps 698 mmHg 73%
    09:00 -12°C° 0 mm 2 mps 698 mmHg 73%
    10:00 -9°C° 0 mm 1 mps 698 mmHg 73%
    11:00 -8°C° 0 mm 1 mps 698 mmHg 72%
    12:00 -7°C° 0 mm 1 mps 698 mmHg 71%
    13:00 -6°C° 0 mm 1 mps 698 mmHg 72%
    14:00 -7°C° 0 mm 1 mps 698 mmHg 74%
    15:00 -8°C° 0 mm 1 mps 698 mmHg 77%
    16:00 -9°C° 0 mm 1 mps 698 mmHg 79%
    17:00 -10°C° 0 mm 1 mps 699 mmHg 80%
    18:00 -10°C° 0 mm 1 mps 699 mmHg 81%
    19:00 -11°C° 0 mm 1 mps 699 mmHg 82%
    20:00 -11°C° 0 mm 1 mps 699 mmHg 83%
    21:00 -11°C° 0 mm 1 mps 700 mmHg 83%
    22:00 -11°C° 0 mm 1 mps 700 mmHg 84%
    23:00 -11°C° 0 mm 1 mps 700 mmHg 84%

    Tomorrow, 19 December, Wednesday

    Time Temperature Precipitation Wind Pressure Humidity
    00:00 -12°C° 0 mm 1 mps 700 mmHg 85%
    01:00 -12°C° 0 mm 1 mps 700 mmHg 85%
    02:00 -12°C° 0 mm 1 mps 700 mmHg 85%
    03:00 -13°C° 0 mm 1 mps 700 mmHg 84%
    04:00 -13°C° 0 mm 1 mps 700 mmHg 84%
    05:00 -14°C° 0 mm 1 mps 700 mmHg 84%
    06:00 -14°C° 0 mm 1 mps 699 mmHg 83%
    07:00 -14°C° 0 mm 1 mps 699 mmHg 83%
    08:00 -13°C° 0 mm 1 mps 699 mmHg 81%
    09:00 -13°C° 0 mm 1 mps 699 mmHg 79%
    10:00 -12°C° 0 mm 1 mps 699 mmHg 77%
    11:00 -11°C° 0 mm 1 mps 699 mmHg 75%
    12:00 -10°C° 0 mm 1 mps 698 mmHg 73%
    13:00 -9°C° 0 mm 1 mps 698 mmHg 71%
    14:00 -10°C° 0 mm 1 mps 697 mmHg 75%
    15:00 -11°C° 0 mm 1 mps 697 mmHg 78%
    16:00 -12°C° 0 mm 1 mps 696 mmHg 81%
    17:00 -13°C° 0 mm 1 mps 696 mmHg 82%
    18:00 -14°C° 0 mm 1 mps 696 mmHg 82%
    19:00 -14°C° 0 mm 1 mps 696 mmHg 83%
    20:00 -14°C° 0 mm 1 mps 696 mmHg 82%
    21:00 -15°C° 0 mm 1 mps 696 mmHg 82%
    22:00 -15°C° 0 mm 1 mps 696 mmHg 81%
    23:00 -15°C° 0 mm 1 mps 696 mmHg 81%

    Day after tomorrow, 20 December, Thursday

    Time Temperature Precipitation Wind Pressure Humidity
    00:00 -15°C° 0 mm 1 mps 695 mmHg 80%
    01:00 -15°C° 0 mm 1 mps 695 mmHg 79%
    02:00 -15°C° 0 mm 1 mps 695 mmHg 79%
    03:00 -15°C° 0 mm 1 mps 695 mmHg 78%
    04:00 -15°C° 0 mm 1 mps 695 mmHg 77%
    05:00 -16°C° 0 mm 1 mps 695 mmHg 76%
    06:00 -16°C° 0 mm 1 mps 696 mmHg 76%
    07:00 -16°C° 0 mm 1 mps 696 mmHg 75%
    08:00 -15°C° 0 mm 1 mps 696 mmHg 74%
    09:00 -14°C° 0 mm 1 mps 697 mmHg 72%
    10:00 -13°C° 0 mm 1 mps 697 mmHg 71%
    11:00 -12°C° 0 mm 1 mps 697 mmHg 70%
    12:00 -10°C° 0 mm 1 mps 697 mmHg 68%
    13:00 -9°C° 0 mm 1 mps 697 mmHg 67%
    14:00 -10°C° 0 mm 1 mps 696 mmHg 70%
    15:00 -12°C° 0 mm 1 mps 696 mmHg 73%
    16:00 -13°C° 0 mm 1 mps 696 mmHg 77%
    17:00 -13°C° 0 mm 1 mps 696 mmHg 77%
    18:00 -13°C° 0 mm 1 mps 697 mmHg 78%
    19:00 -14°C° 0 mm 1 mps 697 mmHg 79%
    20:00 -14°C° 0 mm 1 mps 697 mmHg 79%
    21:00 -13°C° 0 mm 1 mps 697 mmHg 79%
    22:00 -13°C° 0 mm 1 mps 697 mmHg 79%
    23:00 -13°C° 0 mm 1 mps 697 mmHg 79%

    21 December, Friday

    Time Temperature Precipitation Wind Pressure Humidity
    00:00 -13°C° 0 mm 1 mps 697 mmHg 80%
    01:00 -13°C° 0 mm 1 mps 697 mmHg 80%
    02:00 -13°C° 0 mm 1 mps 698 mmHg 81%
    03:00 -14°C° 0 mm 1 mps 698 mmHg 82%
    04:00 -14°C° 0 mm 1 mps 698 mmHg 82%
    05:00 -14°C° 0.1 mm 1 mps 699 mmHg 85%
    06:00 -13°C° 0.1 mm 1 mps 700 mmHg 87%
    07:00 -13°C° 0.1 mm 1 mps 700 mmHg 90%
    08:00 -13°C° 0.2 mm 1 mps 701 mmHg 90%
    09:00 -13°C° 0.2 mm 1 mps 702 mmHg 91%
    10:00 -12°C° 0.2 mm 1 mps 703 mmHg 91%
    11:00 -14°C° 0.2 mm 2 mps 703 mmHg 88%
    12:00 -15°C° 0.2 mm 3 mps 703 mmHg 85%
    13:00 -15°C° 0.2 mm 3 mps 704 mmHg 82%
    14:00 -16°C° 0.1 mm 3 mps 704 mmHg 83%
    15:00 -17°C° 0.1 mm 3 mps 705 mmHg 83%
    16:00 -19°C° 0.1 mm 3 mps 706 mmHg 84%
    17:00 -19°C° 0.1 mm 2 mps 706 mmHg 85%
    18:00 -20°C° 0.1 mm 2 mps 707 mmHg 87%
    19:00 -19°C° 0.1 mm 1 mps 707 mmHg 88%
    20:00 -19°C° 0 mm 1 mps 707 mmHg 86%
    21:00 -20°C° 0 mm 1 mps 708 mmHg 84%
    22:00 -24°C° 0 mm 2 mps 708 mmHg 83%
    23:00 -25°C° 0 mm 2 mps 708 mmHg 79%

    22 December, Saturday

    Time Temperature Precipitation Wind Pressure Humidity
    00:00 -25°C° 0 mm 2 mps 708 mmHg 76%
    01:00 -25°C° 0 mm 2 mps 707 mmHg 72%
    02:00 -25°C° 0 mm 2 mps 707 mmHg 71%
    03:00 -25°C° 0 mm 2 mps 707 mmHg 69%
    04:00 -25°C° 0 mm 2 mps 707 mmHg 68%
    05:00 -25°C° 0 mm 2 mps 707 mmHg 68%
    06:00 -25°C° 0 mm 2 mps 706 mmHg 68%
    07:00 -25°C° 0 mm 2 mps 706 mmHg 68%
    08:00 -24°C° 0 mm 2 mps 706 mmHg 67%
    09:00 -21°C° 0 mm 2 mps 706 mmHg 66%
    10:00 -20°C° 0 mm 2 mps 706 mmHg 66%
    11:00 -18°C° 0 mm 2 mps 705 mmHg 64%
    12:00 -18°C° 0 mm 3 mps 705 mmHg 62%
    13:00 -16°C° 0 mm 3 mps 705 mmHg 60%
    14:00 -17°C° 0 mm 3 mps 704 mmHg 62%
    15:00 -18°C° 0 mm 3 mps 704 mmHg 64%
    16:00 -19°C° 0 mm 3 mps 704 mmHg 66%
    17:00 -19°C° 0 mm 3 mps 703 mmHg 67%
    18:00 -19°C° 0 mm 2 mps 703 mmHg 68%
    19:00 -19°C° 0 mm 2 mps 703 mmHg 69%
    20:00 -20°C° 0 mm 2 mps 703 mmHg 69%
    21:00 -20°C° 0 mm 2 mps 702 mmHg 69%
    22:00 -20°C° 0 mm 2 mps 702 mmHg 70%
    23:00 -20°C° 0 mm 2 mps 702 mmHg 70%

    23 December, Sunday

    Time Temperature Precipitation Wind Pressure Humidity
    00:00 -20°C° 0 mm 2 mps 702 mmHg 70%
    01:00 -20°C° 0 mm 2 mps 701 mmHg 70%
    02:00 -20°C° 0 mm 2 mps 701 mmHg 71%
    03:00 -20°C° 0 mm 2 mps 701 mmHg 71%
    04:00 -20°C° 0 mm 2 mps 701 mmHg 71%
    05:00 -20°C° 0 mm 2 mps 700 mmHg 70%
    06:00 -20°C° 0 mm 2 mps 700 mmHg 70%
    07:00 -20°C° 0 mm 2 mps 700 mmHg 69%
    08:00 -19°C° 0 mm 2 mps 700 mmHg 68%
    09:00 -18°C° 0 mm 2 mps 700 mmHg 66%
    10:00 -17°C° 0 mm 2 mps 700 mmHg 64%
    11:00 -15°C° 0 mm 2 mps 699 mmHg 62%
    12:00 -13°C° 0 mm 2 mps 699 mmHg 60%
    13:00 -12°C° 0 mm 2 mps 699 mmHg 58%
    14:00 -13°C° 0 mm 2 mps 699 mmHg 59%
    15:00 -12°C° 0 mm 1 mps 699 mmHg 61%
    16:00 -14°C° 0 mm 1 mps 699 mmHg 62%
    17:00 -15°C° 0 mm 1 mps 699 mmHg 65%
    18:00 -15°C° 0 mm 1 mps 699 mmHg 69%
    19:00 -18°C° 0 mm 2 mps 700 mmHg 72%
    20:00 -17°C° 0 mm 1 mps 700 mmHg 76%
    21:00 -17°C° 0 mm 1 mps 700 mmHg 79%
    22:00 -18°C° 0 mm 1 mps 701 mmHg 83%
    23:00 -19°C° 0 mm 1 mps 701 mmHg 84%
    Show more